Date String (YYYY-MM-DD hh:mm:ss) UTC,Instrument flags,absolute air pressure of the measurement (hPa),sample flow rate (lpm),inlet stack bypass flow (lpm),air temperature of the measurement (°C),ambient temperature measured by the external sensor (°C),aerosol sample conditioner tube jacket temperature (°C),OPC LED temperature (°C),internal box temperature (°C),relative humidity of the measurement (%),span deviation,mass concentration of particles derived from Lorenz-Mie calculation of OPC scattering (μg/m³),mass concentration of particles derived from Lorenz-Mie calculation of OPC scattering (μg/m³),mass concentration of particles derived from Lorenz-Mie calculation of OPC scattering (μg/m³)
DateTimeUTC,F1_M11,P_M11,Q1_M11,Q2_M11,T1_M11,T2_M11,T3_M11,T4_M11,T5_M11,U1_M11,ZSPAN_M11,X0_M11,X2_M11,X1_M11
2023-10-27 12:00:00,SystemResetWarning,0833.9,5.00,000.00,023.1,021.6,000.0,031.5,024.8,15.2,-001.6,0009.39,0006.72,0006.30
2023-10-27 12:01:00,SystemResetWarning,0833.8,5.00,000.00,023.0,021.6,000.0,031.5,024.7,15.3,-001.7,0009.18,0006.71,0006.34
2023-10-27 12:02:00,SystemResetWarning,0833.8,5.00,000.00,023.1,021.6,000.0,031.5,024.7,15.2,-001.8,0009.06,0006.71,0006.37
2023-10-27 12:03:00,SystemResetWarning,0833.9,5.00,000.00,023.0,021.6,000.0,031.5,024.7,15.2,-001.4,0008.98,0006.72,0006.38
2023-10-27 12:04:00,SystemResetWarning,0833.8,5.00,000.00,023.0,021.6,000.0,031.5,024.7,15.3,-001.5,0009.04,0006.74,0006.40
2023-10-27 12:05:00,SystemResetWarning,0833.9,5.00,000.00,023.0,021.6,000.0,031.5,024.7,15.3,-001.4,0009.23,0006.76,0006.41
2023-10-27 12:06:00,SystemResetWarning,0833.8,5.00,000.00,023.0,021.6,000.0,031.5,024.7,15.3,-001.4,0009.33,0006.79,0006.42
2023-10-27 12:07:00,SystemResetWarning,0833.8,4.99,000.00,023.0,021.6,000.0,031.5,024.8,15.3,-001.6,0009.33,0006.80,0006.44
2023-10-27 12:08:00,SystemResetWarning,0833.9,5.00,000.00,023.0,021.6,000.0,031.5,024.8,15.3,-001.3,0009.53,0006.82,0006.45
2023-10-27 12:09:00,SystemResetWarning,0833.9,5.00,000.00,023.0,021.6,000.0,031.5,024.8,15.3,-001.9,0009.83,0006.85,0006.47
2023-10-27 12:10:00,SystemResetWarning,0833.9,4.99,000.00,023.0,021.6,000.0,031.5,024.8,15.3,-002.1,0009.84,0006.86,0006.49
2023-10-27 12:11:00,SystemResetWarning,0833.8,5.01,000.00,023.0,021.6,000.0,031.5,024.8,15.3,-002.0,0009.85,0006.85,0006.49
2023-10-27 12:12:00,SystemResetWarning,0833.8,5.01,000.00,023.0,021.6,000.0,031.5,024.8,15.3,-002.3,0009.82,0006.84,0006.48
2023-10-27 12:13:00,SystemResetWarning,0833.8,5.00,000.00,023.0,021.6,000.0,031.5,024.8,15.3,-001.5,0009.91,0006.86,0006.48
2023-10-27 12:14:00,SystemResetWarning,0833.9,4.99,000.00,023.0,021.6,000.0,031.5,024.8,15.3,-001.7,0009.91,0006.88,0006.49
2023-10-27 12:15:00,SystemResetWarning,0833.8,4.99,000.00,023.0,021.6,000.0,031.5,024.8,15.3,-001.7,0009.88,0006.87,0006.51
2023-10-27 12:16:00,SystemResetWarning,0833.8,5.00,000.00,023.0,021.6,000.0,031.5,024.8,15.3,-000.4,0009.72,0006.91,0006.54
2023-10-27 12:17:00,SystemResetWarning,0833.9,5.00,000.00,023.0,021.6,000.0,031.5,024.8,15.3,0000.0,0009.63,0006.91,0006.55
2023-10-27 12:18:00,SystemResetWarning,0833.9,5.00,000.00,023.0,021.6,000.0,031.5,024.8,15.3,-000.7,0009.62,0006.90,0006.56
2023-10-27 12:19:00,SystemResetWarning,0833.9,5.01,000.00,023.0,021.6,000.0,031.5,024.8,15.3,-000.9,0009.83,0006.94,0006.57
2023-10-27 12:20:00,SystemResetWarning,0833.9,5.01,000.00,023.0,021.6,000.0,031.5,024.8,15.3,-000.2,0009.48,0006.94,0006.57
2023-10-27 12:21:00,SystemResetWarning,0833.9,5.00,000.00,023.0,021.6,000.0,031.5,024.8,15.3,-000.1,0009.50,0006.94,0006.57
2023-10-27 12:22:00,SystemResetWarning,0833.9,5.00,000.00,023.0,021.6,000.0,031.5,024.8,15.3,-000.1,0009.47,0006.95,0006.59
2023-10-27 12:23:00,SystemResetWarning,0833.9,4.99,000.00,023.0,021.6,000.0,031.5,024.8,15.3,0000.0,0009.60,0007.02,0006.63
2023-10-27 12:24:00,SystemResetWarning,0833.9,5.00,000.00,023.0,021.6,000.0,031.5,024.8,15.3,-000.2,0009.66,0007.03,0006.64
2023-10-27 12:25:00,SystemResetWarning,0833.8,5.00,000.00,023.0,021.6,000.0,031.5,024.8,15.3,-000.0,0009.67,0007.03,0006.65
2023-10-27 12:26:00,SystemResetWarning,0833.9,5.00,000.00,023.0,021.6,000.0,031.5,024.8,15.3,-000.1,0009.77,0007.04,0006.66
2023-10-27 12:27:00,SystemResetWarning,0833.8,5.01,000.00,023.0,021.6,000.0,031.5,024.8,15.3,-000.4,0009.75,0007.03,0006.65
2023-10-27 12:28:00,SystemResetWarning,0833.9,5.00,000.00,023.1,021.6,000.0,031.5,024.8,15.3,-000.4,0009.72,0007.01,0006.65
2023-10-27 12:29:00,SystemResetWarning,0833.8,5.01,000.00,023.0,021.6,000.0,031.5,024.8,15.3,-000.2,0009.83,0007.05,0006.67
2023-10-27 12:30:00,SystemResetWarning,0833.8,5.00,000.00,023.0,021.6,000.0,031.5,024.8,15.3,-000.4,0010.20,0007.03,0006.67
2023-10-27 12:31:00,SystemResetWarning,0833.8,4.99,000.00,023.0,021.6,000.0,031.5,024.8,15.3,-000.3,0010.21,0007.02,0006.69
2023-10-27 12:32:00,SystemResetWarning,0833.8,5.00,000.00,023.0,021.6,000.0,031.5,024.8,15.2,0000.1,0010.15,0007.02,0006.69
2023-10-27 12:33:00,SystemResetWarning,0833.8,4.99,000.00,023.0,021.6,000.0,031.5,024.8,15.2,0000.0,0010.16,0007.03,0006.69
2023-10-27 12:34:00,SystemResetWarning,0833.8,5.00,000.00,023.0,021.6,000.0,031.5,024.8,15.2,0000.0,0010.14,0007.03,0006.68
2023-10-27 12:35:00,SystemResetWarning,0833.9,5.01,000.00,023.0,021.6,000.0,031.5,024.8,15.2,0001.3,0010.09,0007.04,0006.68
2023-10-27 12:36:00,SystemResetWarning,0833.8,5.01,000.00,023.0,021.6,000.0,031.5,024.8,15.2,0001.3,0010.13,0007.06,0006.68
2023-10-27 12:37:00,SystemResetWarning,0833.8,5.01,000.00,023.0,021.6,000.0,031.5,024.8,15.2,0001.4,0010.07,0007.05,0006.68
2023-10-27 12:38:00,SystemResetWarning,0833.8,5.00,000.00,023.1,021.6,000.0,031.5,024.8,15.2,0002.0,0010.15,0007.08,0006.68
2023-10-27 12:39:00,SystemResetWarning,0833.8,5.00,000.00,023.0,021.6,000.0,031.5,024.8,15.2,0002.0,0010.28,0007.12,0006.68
2023-10-27 12:40:00,SystemResetWarning,0833.8,4.99,000.00,023.0,021.6,000.0,031.5,024.8,15.2,0002.7,0010.34,0007.12,0006.67
2023-10-27 12:41:00,SystemResetWarning,0833.8,5.00,000.00,023.0,021.6,000.0,031.5,024.8,15.2,0003.3,0010.30,0007.13,0006.65
2023-10-27 12:42:00,SystemResetWarning,0833.8,5.00,000.00,023.1,021.6,000.0,031.5,024.8,15.2,0002.9,0010.01,0007.13,0006.63
2023-10-27 12:43:00,SystemResetWarning,0833.8,5.01,000.00,023.0,021.6,000.0,031.5,024.8,15.2,0002.5,0010.04,0007.13,0006.62
2023-10-27 12:44:00,SystemResetWarning,0833.8,5.01,000.00,023.0,021.6,000.0,031.5,024.8,15.2,0001.7,0010.04,0007.12,0006.62
2023-10-27 12:45:00,SystemResetWarning,0833.8,5.01,000.00,023.0,021.6,000.0,031.5,024.8,15.2,0001.4,0010.05,0007.14,0006.63
2023-10-27 12:46:00,SystemResetWarning,0833.8,5.00,000.00,023.0,021.6,000.0,031.5,024.8,15.2,0000.8,0010.03,0007.14,0006.63
2023-10-27 12:47:00,SystemResetWarning,0833.8,5.00,000.00,023.0,021.6,000.0,031.5,024.8,15.2,0000.5,0010.04,0007.12,0006.62
2023-10-27 12:48:00,SystemResetWarning,0833.8,5.00,000.00,023.1,021.6,000.0,031.5,024.8,15.2,0000.3,0010.04,0007.12,0006.63
2023-10-27 12:49:00,SystemResetWarning,0833.9,5.00,000.00,023.1,021.6,000.0,031.5,024.8,15.2,-000.2,0009.99,0007.12,0006.65
2023-10-27 12:50:00,SystemResetWarning,0833.9,5.00,000.00,023.1,021.6,000.0,031.5,024.8,15.2,-000.4,0009.92,0007.11,0006.64
2023-10-27 12:51:00,SystemResetWarning,0833.8,5.00,000.00,023.0,021.6,000.0,031.5,024.8,15.2,-001.1,0009.75,0007.09,0006.64
2023-10-27 12:52:00,SystemResetWarning,0833.8,5.00,000.00,023.0,021.6,000.0,031.5,024.8,15.2,-001.3,0009.38,0007.07,0006.66
2023-10-27 12:53:00,SystemResetWarning,0833.8,5.00,000.00,023.0,021.6,000.0,031.5,024.8,15.2,-001.7,0009.60,0007.08,0006.67
2023-10-27 12:54:00,SystemResetWarning,0833.8,5.00,000.00,023.0,021.6,000.0,031.5,024.8,15.2,-001.9,0009.75,0007.10,0006.69
2023-10-27 12:55:00,SystemResetWarning,0833.8,5.01,000.00,023.0,021.6,000.0,031.5,024.8,15.2,-001.9,0010.17,0007.16,0006.71
2023-10-27 12:56:00,SystemResetWarning,0833.8,5.00,000.00,023.0,021.6,000.0,031.5,024.8,15.2,-002.2,0010.34,0007.15,0006.70
2023-10-27 12:57:00,SystemResetWarning,0833.8,5.01,000.00,023.0,021.6,000.0,031.5,024.8,15.2,-002.0,0010.62,0007.13,0006.69
2023-10-27 12:58:00,SystemResetWarning,0833.8,5.00,000.00,023.0,021.6,000.0,031.5,024.8,15.2,-001.7,0010.78,0007.16,0006.70
2023-10-27 12:59:00,SystemResetWarning,0833.8,5.00,000.00,023.0,021.6,000.0,031.5,024.8,15.2,-001.2,0010.78,0007.16,0006.70
